Tracking 31027 objects as of 19-Jul-2025
HD Live streaming from Space Station
objects crossing your sky now

NEE 02 KRYSAOR

Track NEE 02 KRYSAOR now!
10-day predictions
NEE 02 KRYSAOR is classified as:


NORAD ID: 39441
Int'l Code: 2013-066AB
Perigee: 573.1 km
Apogee: 671.6 km
Inclination: 97.9 °
Period: 97.0 minutes
Semi major axis: 6993 km
RCS: Unknown
Launch date: November 21, 2013
Source: Ecuador (ECU)
Launch site: Orenburg, Russia (OREN)

Uplink (MHz):
Downlink (MHz): 980.000
Beacon (MHz):
Mode:
Call sign:
Status:

Your satellite tracking list
IRIDIUM 33 DEB
Track 1 satellite(s)




NASA's NSSDC Master Catalog

Two Line Element Set (TLE):
1 39441U 13066AB  25199.34466862  .00001837  00000-0  21514-3 0  9997
2 39441  97.8559 137.1322 0070382  83.5291 277.3931 14.84487882626632
Source of the keplerian elements: AFSPC